EDT,Max TemperatureF,Mean TemperatureF,Min TemperatureF,Max Dew PointF,MeanDew PointF,Min DewpointF,Max Humidity, Mean Humidity, Min Humidity, Max Sea Level PressureIn, Mean Sea Level PressureIn, Min Sea Level PressureIn, Max VisibilityMiles, Mean VisibilityMiles, Min VisibilityMiles, Max Wind SpeedMPH, Mean Wind SpeedMPH, Max Gust SpeedMPH,PrecipitationIn, CloudCover, Events, WindDirDegrees
2010-10-1,82,70,59,61,57,54,94,68,37,29.82,29.77,29.72,10,10,10,9,4,17,0.00,0,,353
2010-10-2,80,68,57,61,54,52,100,66,37,29.95,29.90,29.85,10,10,10,10,4,,0.00,0,,35
2010-10-3,80,66,51,61,54,48,100,76,34,29.96,29.92,29.88,10,8,3,13,1,18,0.00,1,,309
2010-10-4,71,60,50,52,48,45,87,66,41,30.13,30.08,30.03,10,10,10,10,6,18,0.00,1,,337
2010-10-5,71,58,46,48,45,43,87,65,38,30.23,30.18,30.14,10,10,10,13,4,18,0.00,0,,358
2010-10-6,75,60,46,48,43,37,100,61,25,30.20,30.16,30.04,10,10,10,10,3,17,0.00,0,,330
2010-10-7,82,62,42,50,46,43,100,69,28,30.11,30.07,29.98,10,10,10,8,1,,0.00,0,,317
2010-10-8,84,68,51,57,53,50,100,68,33,30.10,30.04,30.01,10,10,7,9,2,,0.00,0,,35
2010-10-9,84,66,48,61,53,48,100,73,35,30.08,30.04,29.98,10,9,5,5,0,,0.00,0,,51
2010-10-10,87,69,51,63,56,52,100,72,33,30.04,29.99,29.93,10,8,3,6,0,,0.00,0,,248
2010-10-11,87,70,53,64,57,54,100,74,31,30.00,29.96,29.91,10,9,3,8,1,,0.00,0,,229
2010-10-12,84,70,55,61,57,54,100,69,35,30.00,29.97,29.92,10,10,4,9,4,16,0.00,1,,254
2010-10-13,84,72,60,64,61,57,100,77,40,30.00,29.96,29.92,10,9,5,9,2,,0.00,2,,263
2010-10-14,80,66,53,61,56,45,100,72,39,29.96,29.92,29.88,10,10,4,15,4,22,0.00,0,,312
2010-10-15,80,60,39,45,41,37,100,59,28,30.04,29.99,29.88,10,10,10,15,3,22,0.00,0,,280
2010-10-16,75,58,41,46,42,39,100,61,31,30.18,30.11,30.03,10,10,10,7,2,,0.00,0,,16
2010-10-17,80,58,37,48,43,37,100,67,26,30.19,30.14,30.05,10,10,7,7,1,,0.00,0,,266
2010-10-18,84,62,39,48,45,39,100,67,26,30.08,30.03,29.93,10,10,10,8,1,,0.00,0,,262
2010-10-19,82,66,51,57,53,48,100,70,30,29.99,29.95,29.89,10,10,10,12,3,,0.00,0,,259
2010-10-20,78,64,51,63,58,52,100,80,54,29.94,29.90,29.87,10,10,7,8,3,,0.00,2,,263
2010-10-21,80,61,42,57,49,43,100,66,30,30.00,29.95,29.91,10,9,0,13,3,17,0.00,0,,300
2010-10-22,80,61,42,52,45,39,100,64,23,30.13,30.06,29.98,10,10,10,8,2,,0.00,0,,8
2010-10-23,82,62,41,52,45,41,100,67,28,30.28,30.22,30.19,10,10,1,7,2,,0.00,0,,96
2010-10-24,84,67,50,64,58,50,100,77,40,30.23,30.16,30.04,10,10,10,10,2,9,0.00,3,,145
2010-10-25,78,70,62,75,68,63,100,93,78,30.04,29.96,29.87,10,9,0,10,4,16,0.00,3,,168
2010-10-26,89,76,62,75,70,63,100,82,52,29.95,29.89,29.83,10,6,0,16,4,23,0.00,4,,184
2010-10-27,89,80,71,75,72,70,100,81,52,30.07,30.01,29.95,10,9,7,14,6,18,0.00,4,,194
2010-10-28,78,74,69,73,71,68,100,91,74,30.11,30.05,30.00,10,9,4,9,3,,0.00,4,,249
2010-10-29,73,60,48,48,45,43,82,57,33,30.19,30.13,30.07,10,10,10,9,3,,0.00,0,,342
2010-10-30,75,57,39,55,46,39,100,74,36,30.25,30.17,30.08,10,9,2,8,1,,0.00,0,,159
2010-10-31,78,61,44,57,50,45,100,79,39,30.12,30.07,30.01,10,10,5,12,2,18,0.00,0,,258